Time,TemperatureF,DewpointF,PressureIn,WindDirection,WindDirectionDegrees,WindSpeedMPH,WindSpeedGustMPH,Humidity,HourlyPrecipIn,Conditions,Clouds,dailyrainin,SolarRadiationWatts/m^2,SoftwareType,DateUTC
2013-02-21 00:14:00,40.1,37.0,30.02,WNW,284,2.0,4.0,89,0.00,,,0.00,0,weatherlink.com 1.10,2013-02-21 08:14:00,
2013-02-21 00:29:00,40.1,37.0,30.02,WNW,284,3.0,3.0,87,0.00,,,0.00,0,weatherlink.com 1.10,2013-02-21 08:29:00,
2013-02-21 00:44:00,38.9,36.0,30.04,SE,138,5.0,6.0,90,0.00,,,0.00,0,weatherlink.com 1.10,2013-02-21 08:44:00,
2013-02-21 00:59:00,40.2,37.0,30.04,WNW,294,0.0,9.0,88,0.00,,,0.00,0,weatherlink.com 1.10,2013-02-21 08:59:00,
2013-02-21 01:14:00,40.0,37.0,30.04,SE,144,3.0,7.0,88,0.00,,,0.00,0,weatherlink.com 1.10,2013-02-21 09:14:00,
2013-02-21 01:29:00,40.4,37.0,30.05,SSE,165,2.0,4.0,88,0.00,,,0.00,0,weatherlink.com 1.10,2013-02-21 09:29:00,
2013-02-21 01:44:00,39.6,36.0,30.05,South,186,1.0,6.0,87,0.00,,,0.00,0,weatherlink.com 1.10,2013-02-21 09:44:00,
2013-02-21 01:59:00,39.0,36.0,30.05,South,181,1.0,3.0,89,0.00,,,0.00,0,weatherlink.com 1.10,2013-02-21 09:59:00,
2013-02-21 02:14:00,38.2,35.0,30.05,South,175,0.0,4.0,89,0.00,,,0.00,0,weatherlink.com 1.10,2013-02-21 10:14:00,
2013-02-21 02:29:00,38.0,35.0,30.04,South,172,2.0,5.0,90,0.00,,,0.00,0,weatherlink.com 1.10,2013-02-21 10:29:00,
2013-02-21 02:44:00,37.3,35.0,30.04,South,183,2.0,3.0,90,0.00,,,0.00,0,weatherlink.com 1.10,2013-02-21 10:44:00,
2013-02-21 03:00:00,37.1,35.0,30.04,South,183,2.0,4.0,90,0.00,,,0.00,0,weatherlink.com 1.10,2013-02-21 11:00:00,
2013-02-21 03:15:00,36.6,34.0,30.04,SSW,192,3.0,4.0,91,0.00,,,0.00,0,weatherlink.com 1.10,2013-02-21 11:15:00,
2013-02-21 03:30:00,36.6,34.0,30.04,South,188,2.0,4.0,91,0.00,,,0.00,0,weatherlink.com 1.10,2013-02-21 11:30:00,
2013-02-21 03:45:00,36.2,34.0,30.05,SW,217,4.0,5.0,91,0.00,,,0.00,0,weatherlink.com 1.10,2013-02-21 11:45:00,
2013-02-21 04:00:00,36.8,35.0,30.05,SSW,199,0.0,5.0,91,0.00,,,0.00,0,weatherlink.com 1.10,2013-02-21 12:00:00,
2013-02-21 04:15:00,36.2,34.0,30.06,SSE,164,3.0,4.0,91,0.00,,,0.00,0,weatherlink.com 1.10,2013-02-21 12:15:00,
2013-02-21 04:30:00,36.6,35.0,30.06,SSE,163,1.0,3.0,92,0.00,,,0.00,0,weatherlink.com 1.10,2013-02-21 12:30:00,
2013-02-21 04:45:00,37.1,35.0,30.06,South,181,2.0,5.0,91,0.00,,,0.00,0,weatherlink.com 1.10,2013-02-21 12:45:00,
2013-02-21 05:00:00,37.2,35.0,30.06,SSE,157,1.0,4.0,91,0.00,,,0.00,0,weatherlink.com 1.10,2013-02-21 13:00:00,
2013-02-21 05:15:00,36.7,34.0,30.06,SSE,153,2.0,4.0,91,0.00,,,0.00,0,weatherlink.com 1.10,2013-02-21 13:15:00,
2013-02-21 05:30:00,36.4,34.0,30.07,SE,142,1.0,3.0,91,0.00,,,0.00,0,weatherlink.com 1.10,2013-02-21 13:30:00,
2013-02-21 05:45:00,36.4,34.0,30.07,SE,142,1.0,2.0,91,0.00,,,0.00,0,weatherlink.com 1.10,2013-02-21 13:45:00,
2013-02-21 06:00:00,36.6,35.0,30.07,SE,142,0.0,2.0,92,0.00,,,0.00,0,weatherlink.com 1.10,2013-02-21 14:00:00,
2013-02-21 06:15:00,36.6,35.0,30.06,SE,142,1.0,3.0,92,0.00,,,0.00,0,weatherlink.com 1.10,2013-02-21 14:15:00,
2013-02-21 06:30:00,36.1,34.0,30.06,SSE,156,0.0,3.0,92,0.00,,,0.00,0,weatherlink.com 1.10,2013-02-21 14:30:00,
2013-02-21 06:45:00,35.5,33.0,30.07,SSE,156,0.0,2.0,91,0.00,,,0.00,0,weatherlink.com 1.10,2013-02-21 14:45:00,
2013-02-21 07:00:00,34.4,32.0,30.07,SSE,156,0.0,0.0,91,0.00,,,0.00,12,weatherlink.com 1.10,2013-02-21 15:00:00,
2013-02-21 07:15:00,34.7,33.0,30.08,NNE,19,0.0,4.0,92,0.00,,,0.00,35,weatherlink.com 1.10,2013-02-21 15:15:00,
2013-02-21 07:30:00,34.6,33.0,30.09,NNE,19,2.0,3.0,92,0.00,,,0.00,72,weatherlink.com 1.10,2013-02-21 15:30:00,
2013-02-21 07:45:00,35.9,34.0,30.10,NNE,30,2.0,3.0,93,0.00,,,0.00,98,weatherlink.com 1.10,2013-02-21 15:45:00,
2013-02-21 08:00:00,37.1,35.0,30.11,NNE,19,4.0,6.0,92,0.00,,,0.00,171,weatherlink.com 1.10,2013-02-21 16:00:00,
2013-02-21 08:15:00,38.3,36.0,30.10,NNE,16,3.0,5.0,92,0.00,,,0.00,221,weatherlink.com 1.10,2013-02-21 16:15:00,
2013-02-21 08:30:00,39.5,36.0,30.11,NNE,19,5.0,10.0,87,0.00,,,0.00,264,weatherlink.com 1.10,2013-02-21 16:30:00,
2013-02-21 08:45:00,40.6,37.0,30.12,NNE,18,11.0,11.0,85,0.00,,,0.00,308,weatherlink.com 1.10,2013-02-21 16:45:00,
2013-02-21 09:01:00,41.3,37.0,30.13,NNW,344,6.0,11.0,84,0.00,,,0.00,348,weatherlink.com 1.10,2013-02-21 17:01:00,
2013-02-21 09:16:00,42.3,38.0,30.13,NNE,30,11.0,12.0,84,0.00,,,0.00,383,weatherlink.com 1.10,2013-02-21 17:16:00,
2013-02-21 09:31:00,43.4,39.0,30.14,NNE,18,8.0,11.0,83,0.00,,,0.00,418,weatherlink.com 1.10,2013-02-21 17:31:00,
2013-02-21 09:46:00,44.5,40.0,30.15,NNW,338,7.0,11.0,83,0.00,,,0.00,454,weatherlink.com 1.10,2013-02-21 17:46:00,
2013-02-21 10:01:00,45.9,41.0,30.15,North,351,6.0,12.0,82,0.00,,,0.00,478,weatherlink.com 1.10,2013-02-21 18:01:00,
2013-02-21 10:16:00,47.0,41.0,30.15,NE,42,7.0,12.0,81,0.00,,,0.00,513,weatherlink.com 1.10,2013-02-21 18:16:00,
2013-02-21 10:31:00,48.2,42.0,30.15,ENE,68,5.0,11.0,78,0.00,,,0.00,548,weatherlink.com 1.10,2013-02-21 18:31:00,
2013-02-21 10:46:00,49.5,42.0,30.15,NE,41,5.0,10.0,76,0.00,,,0.00,573,weatherlink.com 1.10,2013-02-21 18:46:00,
2013-02-21 11:01:00,50.9,42.0,30.15,North,11,9.0,12.0,72,0.00,,,0.00,596,weatherlink.com 1.10,2013-02-21 19:01:00,
2013-02-21 11:16:00,51.9,42.0,30.15,NNE,28,7.0,11.0,70,0.00,,,0.00,615,weatherlink.com 1.10,2013-02-21 19:16:00,
2013-02-21 11:31:00,52.3,43.0,30.14,North,355,8.0,11.0,70,0.00,,,0.00,629,weatherlink.com 1.10,2013-02-21 19:31:00,
2013-02-21 11:46:00,53.3,43.0,30.14,NNE,19,6.0,13.0,68,0.00,,,0.00,643,weatherlink.com 1.10,2013-02-21 19:46:00,
2013-02-21 12:01:00,53.8,41.0,30.13,North,350,9.0,13.0,63,0.00,,,0.00,650,weatherlink.com 1.10,2013-02-21 20:01:00,
2013-02-21 12:16:00,54.7,41.0,30.13,NNW,343,7.0,13.0,60,0.00,,,0.00,659,weatherlink.com 1.10,2013-02-21 20:16:00,
2013-02-21 12:31:00,55.0,41.0,30.12,NNE,12,7.0,12.0,60,0.00,,,0.00,659,weatherlink.com 1.10,2013-02-21 20:31:00,
2013-02-21 12:46:00,56.2,40.0,30.11,North,5,5.0,12.0,54,0.00,,,0.00,657,weatherlink.com 1.10,2013-02-21 20:46:00,
2013-02-21 13:01:00,57.1,39.0,30.10,North,5,14.0,14.0,51,0.00,,,0.00,649,weatherlink.com 1.10,2013-02-21 21:01:00,
2013-02-21 13:17:00,57.7,37.0,30.10,NNE,22,7.0,14.0,46,0.00,,,0.00,638,weatherlink.com 1.10,2013-02-21 21:17:00,
2013-02-21 13:32:00,58.3,38.0,30.10,North,5,9.0,13.0,47,0.00,,,0.00,622,weatherlink.com 1.10,2013-02-21 21:32:00,
2013-02-21 13:47:00,58.7,37.0,30.09,NNE,17,6.0,14.0,44,0.00,,,0.00,608,weatherlink.com 1.10,2013-02-21 21:47:00,
2013-02-21 14:02:00,59.4,35.0,30.09,NNW,342,9.0,13.0,41,0.00,,,0.00,585,weatherlink.com 1.10,2013-02-21 22:02:00,
2013-02-21 14:17:00,59.8,35.0,30.09,North,11,6.0,13.0,40,0.00,,,0.00,563,weatherlink.com 1.10,2013-02-21 22:17:00,
2013-02-21 14:32:00,60.2,35.0,30.09,NNE,22,4.0,15.0,39,0.00,,,0.00,538,weatherlink.com 1.10,2013-02-21 22:32:00,
2013-02-21 14:47:00,60.5,33.0,30.09,NNE,23,8.0,11.0,36,0.00,,,0.00,420,weatherlink.com 1.10,2013-02-21 22:47:00,
2013-02-21 15:02:00,60.4,34.0,30.08,North,11,8.0,14.0,37,0.00,,,0.00,473,weatherlink.com 1.10,2013-02-21 23:02:00,
2013-02-21 15:17:00,60.6,34.0,30.08,NNW,345,11.0,17.0,37,0.00,,,0.00,439,weatherlink.com 1.10,2013-02-21 23:17:00,
2013-02-21 15:32:00,60.7,33.0,30.08,North,360,6.0,14.0,36,0.00,,,0.00,388,weatherlink.com 1.10,2013-02-21 23:32:00,
2013-02-21 15:47:00,60.4,33.0,30.07,NE,36,8.0,15.0,36,0.00,,,0.00,325,weatherlink.com 1.10,2013-02-21 23:47:00,
2013-02-21 16:02:00,60.0,34.0,30.07,NNE,16,9.0,12.0,38,0.00,,,0.00,199,weatherlink.com 1.10,2013-02-22 00:02:00,
2013-02-21 16:17:00,60.0,33.0,30.08,NNW,346,11.0,13.0,37,0.00,,,0.00,227,weatherlink.com 1.10,2013-02-22 00:17:00,
2013-02-21 16:32:00,59.8,34.0,30.08,NNW,338,5.0,11.0,38,0.00,,,0.00,142,weatherlink.com 1.10,2013-02-22 00:32:00,
2013-02-21 16:48:00,58.5,33.0,30.08,North,355,8.0,11.0,39,0.00,,,0.00,165,weatherlink.com 1.10,2013-02-22 00:48:00,
2013-02-21 17:02:00,58.1,34.0,30.08,North,360,5.0,8.0,41,0.00,,,0.00,116,weatherlink.com 1.10,2013-02-22 01:02:00,
2013-02-21 17:17:00,57.2,34.0,30.08,North,355,3.0,7.0,42,0.00,,,0.00,63,weatherlink.com 1.10,2013-02-22 01:17:00,
2013-02-21 17:32:00,55.5,34.0,30.09,NNW,348,3.0,5.0,45,0.00,,,0.00,18,weatherlink.com 1.10,2013-02-22 01:32:00,
2013-02-21 17:47:00,53.7,34.0,30.08,North,355,1.0,5.0,48,0.00,,,0.00,9,weatherlink.com 1.10,2013-02-22 01:47:00,
2013-02-21 18:02:00,52.0,34.0,30.09,North,355,1.0,2.0,50,0.00,,,0.00,0,weatherlink.com 1.10,2013-02-22 02:02:00,
2013-02-21 18:17:00,50.8,33.0,30.09,North,355,0.0,1.0,50,0.00,,,0.00,0,weatherlink.com 1.10,2013-02-22 02:17:00,
2013-02-21 18:32:00,49.4,32.0,30.10,North,355,0.0,1.0,51,0.00,,,0.00,0,weatherlink.com 1.10,2013-02-22 02:32:00,
2013-02-21 18:47:00,48.7,33.0,30.10,North,355,0.0,0.0,54,0.00,,,0.00,0,weatherlink.com 1.10,2013-02-22 02:47:00,
2013-02-21 19:02:00,47.7,32.0,30.11,North,355,0.0,0.0,55,0.00,,,0.00,0,weatherlink.com 1.10,2013-02-22 03:02:00,
2013-02-21 19:17:00,47.2,37.0,30.11,North,355,0.0,0.0,67,0.00,,,0.00,0,weatherlink.com 1.10,2013-02-22 03:17:00,
2013-02-21 19:32:00,47.1,33.0,30.11,WNW,303,0.0,4.0,58,0.00,,,0.00,0,weatherlink.com 1.10,2013-02-22 03:32:00,
2013-02-21 19:47:00,46.4,32.0,30.11,WNW,288,1.0,4.0,58,0.00,,,0.00,0,weatherlink.com 1.10,2013-02-22 03:47:00,
2013-02-21 20:02:00,46.3,32.0,30.11,WNW,288,0.0,2.0,59,0.00,,,0.00,0,weatherlink.com 1.10,2013-02-22 04:02:00,
2013-02-21 20:17:00,45.9,33.0,30.12,WNW,288,0.0,3.0,61,0.00,,,0.00,0,weatherlink.com 1.10,2013-02-22 04:17:00,
2013-02-21 20:32:00,45.4,34.0,30.12,WNW,288,1.0,4.0,64,0.00,,,0.00,0,weatherlink.com 1.10,2013-02-22 04:32:00,
2013-02-21 20:47:00,44.8,33.0,30.12,WNW,288,0.0,2.0,64,0.00,,,0.00,0,weatherlink.com 1.10,2013-02-22 04:47:00,
2013-02-21 21:02:00,43.0,34.0,30.13,WNW,288,0.0,1.0,70,0.00,,,0.00,0,weatherlink.com 1.10,2013-02-22 05:02:00,
2013-02-21 21:17:00,42.0,33.0,30.13,WNW,288,0.0,0.0,71,0.00,,,0.00,0,weatherlink.com 1.10,2013-02-22 05:17:00,
2013-02-21 21:32:00,39.8,32.0,30.14,WNW,288,0.0,1.0,74,0.00,,,0.00,0,weatherlink.com 1.10,2013-02-22 05:32:00,
2013-02-21 21:47:00,39.7,33.0,30.14,WNW,288,0.0,0.0,77,0.00,,,0.00,0,weatherlink.com 1.10,2013-02-22 05:47:00,
2013-02-21 22:02:00,39.4,33.0,30.14,WNW,288,0.0,1.0,78,0.00,,,0.00,0,weatherlink.com 1.10,2013-02-22 06:02:00,
2013-02-21 22:17:00,39.8,33.0,30.15,WNW,288,0.0,0.0,78,0.00,,,0.00,0,weatherlink.com 1.10,2013-02-22 06:17:00,
2013-02-21 22:32:00,39.1,33.0,30.15,WNW,288,0.0,1.0,79,0.00,,,0.00,0,weatherlink.com 1.10,2013-02-22 06:32:00,
2013-02-21 22:47:00,38.3,33.0,30.15,WNW,288,0.0,1.0,80,0.00,,,0.00,0,weatherlink.com 1.10,2013-02-22 06:47:00,
2013-02-21 23:02:00,37.3,32.0,30.15,WNW,288,0.0,0.0,82,0.00,,,0.00,0,weatherlink.com 1.10,2013-02-22 07:02:00,
2013-02-21 23:17:00,37.0,33.0,30.14,WNW,288,0.0,0.0,85,0.00,,,0.00,0,weatherlink.com 1.10,2013-02-22 07:17:00,
2013-02-21 23:32:00,37.2,33.0,30.15,NNE,30,0.0,3.0,85,0.00,,,0.00,0,weatherlink.com 1.10,2013-02-22 07:32:00,
2013-02-21 23:47:00,37.1,33.0,30.15,NNE,30,0.0,1.0,84,0.00,,,0.00,0,weatherlink.com 1.10,2013-02-22 07:47:00,